Location: Banksville Park
(38.5557°N, 75.1182°W)
Time: 13:50:52
(UTC+00:00)

Cosmos 2219 Rocket - Pass Details

Date: 19 September 2020
Orbit: 827 x 847 km, 71.0° (Epoch: 25 October)

Event Time Altitude Azimuth Distance (km) Brightness Sun altitude
Rises 09:57:54 0° 171° (S) 3,376 5.3 -10.2°
Reaches altitude 10° 10:00:38 10° 160° (SSE) 2,449 4.8 -9.6°
Maximum altitude 10:05:21 28° 102° (ESE) 1,527 4.4 -8.7°
Drops below altitude 10° 10:10:06 10° 45° (NE) 2,472 5.5 -7.8°
Sets 10:12:51 0° 35° (NE) 3,413 6.0 -7.3°
